EW5854 Weather Reports


Display with metric or nautical units.
time (UTC)temp
F
wind
direction
speed
MPH
gust
MPH
rain 1hr
in
rain 24hr
in
rain mn
in
humidity
%
barometer
mb
20260505183022 71 117 2.0 9.0 0.01 0.01 0.01 59 1004.5
20260505181519 70 117 2.0 12.0 0.01 0.01 0.01 60 1004.7
20260505180019 70 117 2.0 10.0 0.01 0.01 0.01 59 1004.9
20260505174515 70 77 3.0 15.0 0.00 0.00 0.00 59 1005.1
20260505173012 70 61 3.0 11.0 0.00 0.00 0.00 59 1005.5
20260505171510 69 22 3.0 9.0 0.00 0.00 0.00 59 1005.7
20260505170015 70 344 0.0 0.0 0.00 0.00 0.00 60 1005.9
20260505164557 73 339 0.0 0.0 0.00 0.00 0.00 56 1006.1
20260505163056 75 340 0.0 0.0 0.00 0.00 0.00 53 1006.3
20260505161613 76 340 0.0 0.0 0.00 0.00 0.00 53 1006.6
20260505153059 74 343 0.0 0.0 0.00 0.00 0.00 53 1007.4
20260505151558 75 342 0.0 0.0 0.00 0.00 0.00 56 1007.5
20260505124556 64 338 0.0 0.0 0.00 0.00 0.00 64 1008.2
20260505123055 65 341 0.0 0.0 0.00 0.00 0.00 63 1008.2
20260505121537 64 342 0.0 0.0 0.00 0.00 0.00 70 1008.3
20260505120039 63 342 0.0 0.0 0.00 0.00 0.00 67 1008.5
20260505114538 61 345 0.0 0.0 0.00 0.00 0.00 71 1008.5
20260505113029 59 343 0.0 0.0 0.00 0.00 0.00 76 1008.5
20260505111526 57 342 0.0 0.0 0.00 0.00 0.00 79 1008.5
20260505101600 50 343 0.0 0.0 0.00 0.00 0.00 96 1008.3
20260505100059 46 344 0.0 0.0 0.00 0.00 0.00 99 1008.3
20260505094556 45 343 0.0 0.0 0.00 0.00 0.00 99 1008.3
20260505093055 44 343 0.0 0.0 0.00 0.00 0.00 100 1008.2
20260505091554 44 343 0.0 0.0 0.00 0.00 0.00 100 1008.2
20260505084554 44 343 0.0 0.0 0.00 0.00 0.00 100 1008.4
20260505083058 43 343 0.0 0.0 0.00 0.00 0.00 100 1008.4
20260505081543 43 343 0.0 0.0 0.00 0.00 0.00 100 1008.5
20260505080036 43 343 0.0 0.0 0.00 0.00 0.00 100 1008.6
20260505074522 43 343 0.0 0.0 0.00 0.00 0.00 100 1008.5
20260505073020 43 343 0.0 0.0 0.00 0.00 0.00 100 1008.5
20260505071520 42 343 0.0 0.0 0.00 0.00 0.00 100 1008.5
20260505070019 42 343 0.0 0.0 0.00 0.00 0.00 100 1008.4
20260505064520 42 343 0.0 0.0 0.00 0.00 0.00 99 1008.3
20260505063018 42 343 0.0 0.0 0.00 0.00 0.00 99 1008.4
20260505061517 42 343 0.0 0.0 0.00 0.00 0.00 99 1008.5
20260505060026 42 343 0.0 0.0 0.00 0.00 0.00 99 1008.4
20260505054505 42 343 0.0 0.0 0.00 0.00 0.00 98 1008.4
20260505053003 43 343 0.0 0.0 0.00 0.00 0.00 98 1008.4
20260505051501 43 343 0.0 0.0 0.00 0.00 0.00 98 1008.4
20260505041552 45 343 0.0 0.0 0.00 0.00 0.00 97 1008.0
20260505040052 45 343 0.0 0.0 0.00 0.00 0.00 97 1007.9
20260505034534 46 343 0.0 0.0 0.00 0.00 0.00 97 1007.9
20260505033047 46 343 0.0 0.0 0.00 0.00 0.00 98 1007.9
20260505031511 45 342 0.0 0.0 0.00 0.00 0.00 98 1007.6
20260505030011 46 342 0.0 0.0 0.00 0.00 0.00 98 1007.7
20260505024604 46 341 0.0 0.0 0.00 0.00 0.00 98 1007.9
20260505023107 46 342 0.0 0.0 0.00 0.00 0.00 99 1008.0
20260505021558 46 342 0.0 0.0 0.00 0.00 0.00 98 1007.9
20260505020057 46 342 0.0 0.0 0.00 0.00 0.00 98 1007.9
20260505014557 47 342 0.0 0.0 0.00 0.00 0.00 98 1008.0
20260505013056 47 341 0.0 0.0 0.00 0.00 0.00 98 1008.0
20260505011600 46 342 0.0 0.0 0.00 0.00 0.00 98 1007.8
20260505010058 46 341 0.0 0.0 0.00 0.00 0.00 97 1007.6
20260505004549 46 342 0.0 0.0 0.00 0.00 0.00 97 1007.3
20260505003043 46 342 0.0 0.0 0.00 0.00 0.00 96 1007.0
20260505001544 47 342 0.0 0.0 0.00 0.00 0.00 95 1006.7
20260505000046 48 341 0.0 0.0 0.00 0.00 0.00 94 1006.6
20260504234608 49 342 0.0 0.0 0.00 0.00 0.00 94 1006.4
20260504233042 50 342 0.0 0.0 0.00 0.00 0.00 93 1006.3
20260504231551 51 341 0.0 0.0 0.00 0.00 0.00 92 1006.3
20260504230041 52 342 0.0 0.0 0.00 0.00 0.00 91 1006.1
20260504224541 53 342 0.0 0.0 0.00 0.00 0.00 89 1006.0
20260504223030 54 342 0.0 0.0 0.00 0.00 0.00 87 1006.0
20260504221529 55 342 0.0 0.0 0.00 0.00 0.00 85 1005.9
20260504220029 55 342 0.0 0.0 0.00 0.00 0.00 87 1005.9
20260504214535 56 340 0.0 0.0 0.00 0.00 0.00 83 1006.0
20260504213030 57 340 0.0 0.0 0.00 0.00 0.00 84 1006.1
20260504211528 58 341 0.0 0.0 0.00 0.00 0.00 82 1006.1
20260504210027 58 341 0.0 0.0 0.00 0.00 0.00 81 1006.0
20260504204554 59 341 0.0 0.0 0.00 0.00 0.00 76 1005.8
20260504203015 61 345 0.0 0.0 0.00 0.00 0.00 72 1005.9
20260504201514 61 341 0.0 0.0 0.00 0.00 0.00 76 1005.9
20260504200014 59 345 0.0 0.0 0.00 0.00 0.00 78 1005.9
20260504194511 57 342 0.0 0.0 0.00 0.00 0.00 79 1005.9
20260504193017 56 344 0.0 0.0 0.00 0.00 0.00 88 1005.9
20260504191508 55 345 0.0 0.0 0.00 0.00 0.00 97 1006.1
20260504190009 54 342 0.0 0.0 0.00 0.00 0.00 97 1006.2
20260504184506 54 347 0.0 0.0 0.00 0.00 0.00 98 1006.4